This demonstration page uses our WeatherBlox Daily Observations layout. Learn more.

38.89511, -77.03637

Hourly Observations for April 7, 2017

Temp ( °F °C ) Dew Point ( °F °C ) Humidity (%) Winds ( mph kmh ) Pressure ( in mb ) Visibility ( mi km ) Precip ( " mm )
12:52 am 00:52 Cloudy 51 10.6 35 1.7 54 54 SW 9 15 29.44 997 10 16.0934 0 0
1:52 am 01:52 Mostly Cloudy 51 10.6 33 0.6 50 50 WSW 14 22 29.44 997 10 16.0934 0 0
2:52 am 02:52 Mostly Cloudy 50 10 33 0.6 52 52 W 7 11 29.43 997 10 16.0934 0 0
3:52 am 03:52 Mostly Cloudy 50 10 31 -0.6 48 48 W 9 15 29.43 997 10 16.0934 0 0
4:52 am 04:52 Mostly Cloudy 48 8.9 28 -2.2 46 46 WNW 17 28 29.44 997 10 16.0934 0 0
5:52 am 05:52 Cloudy 47 8.3 29 -1.7 50 50 W 25 41 29.47 998 10 16.0934 0 0
6:16 am 06:16 Cloudy with Light Rain 46 7.8 30 -1.1 54 54 W 17 28 29.47 998 10 16.0934 0 0.0254
6:19 am 06:19 Cloudy with Light Rain 45 7.2 31 -0.6 58 58 W 21 33 29.47 998 10 16.0934 0 0.0254
6:52 am 06:52 Cloudy 45 7.2 31 -0.6 58 58 WSW 16 26 29.49 999 10 16.0934 0 0.0254
7:52 am 07:52 Cloudy 44 6.7 33 0.6 65 65 W 13 20 29.53 1000 10 16.0934 0 0.0254
8:52 am 08:52 Mostly Cloudy 47 8.3 29 -1.7 50 50 W 13 20 29.54 1000 10 16.0934 0 0
9:52 am 09:52 Cloudy 48 8.9 28 -2.2 46 46 W 23 37 29.55 1001 10 16.0934 0 0
10:52 am 10:52 Cloudy 49 9.4 28 -2.2 44 44 WNW 16 26 29.58 1002 10 16.0934 0 0
11:52 am 11:52 Cloudy 49 9.4 27 -2.8 43 43 WNW 24 39 29.6 1002 10 16.0934 0 0
12:52 pm 12:52 Cloudy 48 8.9 28 -2.2 46 46 NW 23 37 29.61 1003 10 16.0934 0 0
1:52 pm 13:52 Mostly Cloudy 50 10 28 -2.2 43 43 WNW 21 33 29.62 1003 10 16.0934 0 0.0254
2:52 pm 14:52 Cloudy with Light Rain 48 8.9 27 -2.8 44 44 WNW 20 31 29.64 1004 10 16.0934 0 0.0254
3:52 pm 15:52 Cloudy with Light Rain 48 8.9 29 -1.7 48 48 WNW 21 33 29.66 1004 10 16.0934 0 0.0254
4:52 pm 16:52 Cloudy 47 8.3 29 -1.7 50 50 NW 21 33 29.67 1005 10 16.0934 0 0.0254
5:52 pm 17:52 Cloudy 47 8.3 28 -2.2 48 48 NNW 22 35 29.71 1006 10 16.0934 0 0
6:52 pm 18:52 Cloudy 47 8.3 28 -2.2 48 48 NW 16 26 29.74 1007 10 16.0934 0 0
7:52 pm 19:52 Cloudy 46 7.8 28 -2.2 50 50 WNW 17 28 29.78 1008 10 16.0934 0 0
8:52 pm 20:52 Cloudy 45 7.2 28 -2.2 52 52 NW 24 39 29.83 1010 10 16.0934 0 0
9:52 pm 21:52 Mostly Cloudy 44 6.7 26 -3.3 49 49 WNW 13 20 29.87 1011 10 16.0934 0 0
10:52 pm 22:52 Partly Cloudy 44 6.7 26 -3.3 49 49 NW 17 28 29.88 1012 10 16.0934 0 0
11:52 pm 23:52 Partly Cloudy 43 6.1 26 -3.3 51 51 NW 13 20 29.89 1012 10 16.0934 0 0

Powered by AerisWeather